Simultaneous Nadir Overpasses (SNOs) Predictions

Prediction of SNOs between GOES-16 and LANDSAT-8 Satellite Orbit:

Table of predicted SNOs for the next 14.0 days since TLE Epoch: 3/19/2022
Index Date Time (GOES-16) GOES-16 Lat,Lon LANDSAT-8 Lat,Lon Distance(km) Time Diff (sec)
1 03/19/2022 02:57:18 -0.06, -75.21 0.66, -71.70 398.36 80
2 03/19/2022 15:18:34 0.06, -75.23 0.38, -76.87 185.55 80
3 03/21/2022 15:06:21 0.06, -75.24 -0.24, -73.91 151.64 80
4 03/22/2022 03:30:24 -0.06, -75.22 -0.86, -79.10 440.55 80
5 03/23/2022 14:54:08 0.05, -75.25 -0.86, -70.95 488.75 80
6 03/24/2022 03:18:12 -0.06, -75.23 -0.23, -76.14 103.46 80
7 03/26/2022 03:03:19 -0.05, -75.24 0.40, -73.18 233.90 80
8 03/26/2022 15:24:33 0.05, -75.26 0.70, -78.34 350.04 80
9 03/28/2022 15:12:20 0.05, -75.28 0.06, -75.38 11.74 80
10 03/30/2022 15:02:47 0.04, -75.30 -0.59, -72.42 327.87 80
11 03/31/2022 03:24:10 -0.04, -75.29 -0.55, -77.61 263.35 80
